Location: Hawks Ness
(60.2333°N, 1.1667°W)
Time: 10:05:33
(UTC+00:00)

H-2A R/B - Pass Details

Date: 22 October 2019
Orbit: 530 x 653 km, 98.3° (Epoch: 14 November)

Event Time Altitude Azimuth Distance (km) Brightness Sun altitude
Rises 06:11:20 0° 13° (NNE) 2,787 6.0 -6.8°
Reaches altitude 10° 06:13:46 10° 360° (N) 1,907 5.0 -6.5°
Maximum altitude 06:17:03 23° 307° (NW) 1,267 3.7 -6.1°
Drops below altitude 10° 06:20:25 10° 254° (WSW) 1,957 4.6 -5.7°
Sets 06:22:57 0° 241° (WSW) 2,881 5.5 -5.4°
